Weather History for KTDZ - January, 2013

Change the Weather History Date:

Thursday, January 17, 2013

  Actual Average (KTOL) Record (KTOL)
Temperature  
Mean Temperature 31 °F 25 °F  
Max Temperature 41 °F 32 °F 64 °F (1952)
Min Temperature 19 °F 18 °F -17 °F (1982)
Degree Days  
Heating Degree Days 34 40  
Month to date heating degree days 671  
Since 1 July heating degree days 2996  
Cooling Degree Days 0 0  
Month to date cooling degree days 0  
Year to date cooling degree days 0  
Moisture  
Dew Point 22 °F    
Average Humidity 66    
Maximum Humidity 89    
Minimum Humidity 48    
Precipitation  
Precipitation 0.00 in 0.06 in - ()
Month to date precipitation 1.20  
Year to date precipitation 1.20  
Snow  
Snow 0.00 in 0.40 in - ()
Month to date snowfall 6.1  
Since 1 July snowfall 15.6  
Snow Depth -    
Sea Level Pressure  
Sea Level Pressure 30.19 in    
Wind  
Wind Speed 10 mph (WNW)    
Max Wind Speed 21 mph    
Max Gust Speed 29 mph    
Visibility 9 miles    
Events      
T = Trace of Precipitation, MM = Missing Value Source: NWS Daily Summary

Daily Weather History Graph

Daily Weather History Graph

Search for Another Location

Airport or City:

Trip Planner

Search our weather history database for the weather conditions in past years. The results will help you decide how hot, cold, wet, or windy it might be!

Date:

Astronomy

Jan. 17, 2013 Rise Set
Actual Time 7:57 AM EST 5:31 PM EST
Civil Twilight 7:26 AM EST 6:01 PM EST
Nautical Twilight 6:52 AM EST 6:36 PM EST
Astronomical Twilight 6:19 AM EST 7:09 PM EST
Moon 10:57 AM EST (1/17) No Moon Set
Length of Visible Light 10h 35m
Length of Day
9h 34m
Waxing Crescent, 37% of the Moon is Illuminated
Jan 17
Waxing Crescent
Jan 18
First Quarter
Jan 26
Full
Feb 3
Last Quarter
Feb 10
New

Hourly Weather History & Observations

Time (EST) Temp. Windchill Dew Point Humidity Pressure Visibility Wind Dir Wind Speed Gust Speed Precip Events Conditions
12:53 AM 34.0 °F 25.5 °F 26.1 °F 73% 30.03 in 10.0 mi WSW 11.5 mph - N/A   Overcast
1:53 AM 34.0 °F 26.6 °F 27.0 °F 75% 30.06 in 10.0 mi WSW 9.2 mph - N/A   Overcast
2:53 AM 34.0 °F 26.6 °F 27.0 °F 75% 30.08 in 10.0 mi WSW 9.2 mph - N/A   Overcast
3:53 AM 35.1 °F 27.9 °F 27.0 °F 72% 30.08 in 10.0 mi West 9.2 mph - N/A   Overcast
4:53 AM 34.0 °F 28.8 °F 27.0 °F 75% 30.09 in 10.0 mi WSW 5.8 mph - N/A   Overcast
5:15 AM 33.8 °F 29.6 °F 26.6 °F 75% 30.08 in 10.0 mi WSW 4.6 mph - N/A   Overcast
6:53 AM 30.0 °F - 26.1 °F 85% 30.14 in 7.0 mi Calm Calm - N/A   Clear
7:53 AM 28.9 °F 25.2 °F 26.1 °F 89% 30.16 in 7.0 mi West 3.5 mph - N/A   Clear
8:53 AM 28.9 °F 23.9 °F 25.0 °F 85% 30.18 in 4.0 mi SSW 4.6 mph - N/A   Clear
9:53 AM 32.0 °F 27.5 °F 28.0 °F 85% 30.21 in 5.0 mi WSW 4.6 mph - N/A   Clear
10:53 AM 35.1 °F 30.1 °F 28.9 °F 78% 30.22 in 7.0 mi West 5.8 mph - N/A   Clear
11:25 AM 35.6 °F 30.7 °F 24.8 °F 65% 30.20 in 10.0 mi NW 5.8 mph - N/A   Mostly Cloudy
11:42 AM 37.4 °F 31.4 °F 26.6 °F 65% 30.19 in 10.0 mi WNW 8.1 mph - N/A   Mostly Cloudy
11:53 AM 36.0 °F 29.6 °F 25.0 °F 64% 30.21 in 10.0 mi NNW 8.1 mph - N/A   Scattered Clouds
12:53 PM 37.9 °F 30.5 °F 24.1 °F 57% 30.18 in 10.0 mi NW 11.5 mph - N/A   Partly Cloudy
1:53 PM 39.9 °F 33.4 °F 23.0 °F 51% 30.15 in 10.0 mi West 10.4 mph 18.4 mph N/A   Clear
2:53 PM 39.9 °F 31.4 °F 23.0 °F 51% 30.13 in 10.0 mi West 16.1 mph - N/A   Clear
3:53 PM 41.0 °F 33.5 °F 23.0 °F 49% 30.13 in 10.0 mi West 13.8 mph 21.9 mph N/A   Mostly Cloudy
4:53 PM 37.0 °F 26.7 °F 19.0 °F 48% 30.16 in 10.0 mi WNW 19.6 mph 26.5 mph N/A   Clear
5:53 PM 33.1 °F 21.5 °F 18.0 °F 54% 30.20 in 10.0 mi NW 19.6 mph - N/A   Clear
6:53 PM 30.0 °F 17.5 °F 15.1 °F 54% 30.25 in 10.0 mi NW 19.6 mph 28.8 mph N/A   Clear
7:53 PM 26.1 °F 14.0 °F 15.1 °F 63% 30.30 in 10.0 mi NW 15.0 mph 23.0 mph N/A   Clear
8:53 PM 24.1 °F 9.4 °F 12.0 °F 60% 30.33 in 10.0 mi NW 20.7 mph 27.6 mph N/A   Clear
9:53 PM 23.0 °F 8.0 °F 8.1 °F 53% 30.34 in 10.0 mi NW 20.7 mph 27.6 mph N/A   Clear
10:53 PM 21.9 °F 9.2 °F 8.1 °F 55% 30.35 in 10.0 mi NW 13.8 mph - N/A   Clear
11:53 PM 19.0 °F 11.1 °F 9.0 °F 65% 30.36 in 10.0 mi NW 5.8 mph - N/A   Clear